CDT,Max TemperatureF,Mean TemperatureF,Min TemperatureF,Max Dew PointF,MeanDew PointF,Min DewpointF,Max Humidity, Mean Humidity, Min Humidity, Max Sea Level PressureIn, Mean Sea Level PressureIn, Min Sea Level PressureIn, Max VisibilityMiles, Mean VisibilityMiles, Min VisibilityMiles, Max Wind SpeedMPH, Mean Wind SpeedMPH, Max Gust SpeedMPH,PrecipitationIn, CloudCover, Events, WindDirDegrees
2013-9-1,93,86,78,77,75,70,90,72,47,29.94,29.90,29.86,10,10,8,8,4,,0.00,1,,249
2013-9-2,91,84,78,77,75,71,90,71,52,29.99,29.92,29.88,10,10,10,9,4,,0.00,1,,216
2013-9-3,93,84,78,78,75,72,93,77,57,29.98,29.93,29.90,10,10,6,13,3,,0.04,2,Rain-Thunderstorm,305
2013-9-4,91,83,75,76,74,71,90,76,53,30.06,30.01,29.96,10,10,7,12,2,,0.00,1,Thunderstorm,171
2013-9-5,91,82,75,76,74,72,94,75,57,30.11,30.07,30.03,10,9,6,13,2,,0.00,1,Thunderstorm,150
2013-9-6,91,82,75,77,74,71,91,77,54,30.10,30.04,29.99,10,9,5,10,2,,0.00,1,,86
2013-9-7,91,82,73,73,71,67,94,71,45,30.05,30.00,29.97,10,8,4,10,2,,0.00,0,,131
2013-9-8,90,82,73,74,72,69,91,74,53,30.01,29.97,29.94,10,8,4,9,2,,0.00,0,,152
2013-9-9,91,82,73,73,71,66,91,69,43,30.04,30.01,29.96,10,9,4,12,3,20,0.00,0,,122
2013-9-10,91,83,75,74,71,65,87,67,42,30.11,30.07,30.02,10,9,5,18,4,24,0.00,2,,110
2013-9-11,91,82,73,74,71,68,91,69,47,30.12,30.07,30.03,10,10,6,15,7,,0.00,0,,84
2013-9-12,91,82,73,73,71,69,88,72,50,30.04,29.99,29.92,10,10,2,14,3,,0.00,1,,124
2013-9-13,91,82,73,73,71,68,93,70,47,29.93,29.88,29.82,10,9,4,9,2,,0.00,1,Thunderstorm,279
2013-9-14,90,81,73,73,69,66,90,68,50,29.98,29.92,29.86,10,10,7,12,4,,0.03,3,Rain,35
2013-9-15,90,81,73,74,69,59,84,66,57,30.06,30.02,29.97,10,10,10,13,5,16,0.00,0,,96
2013-9-16,91,82,73,74,72,70,93,75,54,30.08,30.04,30.00,10,9,4,9,3,,0.02,0,,113
2013-9-17,91,83,75,75,72,70,87,71,55,30.08,30.02,29.97,10,10,6,12,4,,0.00,0,,96
2013-9-18,88,82,77,75,73,70,88,77,65,30.06,30.03,30.00,10,9,2,20,9,32,0.12,3,Rain,80
2013-9-19,89,82,75,77,74,72,89,80,63,30.06,30.01,29.98,10,9,0,23,11,33,0.33,4,Fog-Rain,108
2013-9-20,88,84,81,77,75,73,85,75,67,30.00,29.91,29.83,10,10,4,16,10,21,0.06,3,Rain,152
2013-9-21,82,78,73,77,74,69,94,85,77,29.83,29.78,29.72,10,8,1,13,6,21,0.65,6,Rain,210
2013-9-22,82,76,69,70,66,62,94,77,58,29.81,29.77,29.73,10,10,10,13,8,,0.00,4,Rain,23
2013-9-23,87,77,68,77,70,59,88,75,65,29.86,29.83,29.79,10,10,10,14,6,,0.00,2,,81
2013-9-24,84,80,75,79,76,75,97,90,77,29.87,29.81,29.76,10,7,0,16,5,22,1.26,6,Fog-Rain-Thunderstorm,91
2013-9-25,90,80,73,75,72,67,100,83,49,29.83,29.79,29.76,10,9,1,9,5,,0.00,5,,348
2013-9-26,91,78,66,71,66,62,90,69,40,29.94,29.87,29.81,10,10,9,9,3,,0.00,1,,335
2013-9-27,84,78,72,70,68,65,91,74,53,30.03,29.98,29.93,10,10,9,13,6,,0.00,1,,90
2013-9-28,86,76,69,68,65,62,90,71,47,30.07,30.03,30.00,10,10,10,10,5,,0.00,1,,93
2013-9-29,84,75,66,66,65,63,90,71,54,30.04,30.00,29.95,10,10,10,12,3,,0.00,3,Rain,81
2013-9-30,82,76,72,71,69,64,91,77,65,29.98,29.95,29.93,10,10,10,14,5,,0.03,5,Rain,101